This is the latest recevied weather packets stored in our database for station/object DC4THF-13. If no packets are shown the sender has not sent any weather packets the latest 10 day(s).
| Time | Temp. | Humidity | Pressure | Rain* | Wind** | Luminosity | Snow |
|---|---|---|---|---|---|---|---|
| 1777504943 | 1.11° C | 61% | 1027.3 hPa | 0 mm | - | - | - |
| 1777504340 | 1.11° C | 60% | 1027.3 hPa | 0 mm | - | - | - |
| 1777503737 | 1.67° C | 60% | 1027.2 hPa | 0 mm | - | - | - |
| 1777503194 | 1.67° C | 60% | 1027.1 hPa | 0 mm | - | - | - |
| 1777502591 | 1.67° C | 60% | 1027.1 hPa | 0 mm | - | - | - |
| 1777501988 | 2.22° C | 58% | 1027.2 hPa | 0 mm | - | - | - |
| 1777501384 | 2.22° C | 58% | 1027.1 hPa | 0 mm | - | - | - |
| 1777500781 | 2.22° C | 58% | 1026.9 hPa | 0 mm | - | - | - |
| 1777500178 | 2.22° C | 59% | 1026.9 hPa | 0 mm | - | - | - |
| 1777499574 | 2.78° C | 58% | 1026.9 hPa | 0 mm | - | - | - |
| 1777498970 | 2.78° C | 58% | 1026.8 hPa | 0 mm | - | - | - |
| 1777498366 | 2.78° C | 57% | 1026.7 hPa | 0 mm | - | - | - |
| 1777497762 | 2.78° C | 57% | 1026.7 hPa | 0 mm | - | - | - |
| 1777497158 | 3.33° C | 57% | 1026.7 hPa | 0 mm | - | - | - |
| 1777496555 | 3.33° C | 56% | 1026.6 hPa | 0 mm | - | - | - |
| 1777495951 | 3.33° C | 55% | 1026.5 hPa | 0 mm | - | - | - |
| 1777495347 | 3.89° C | 54% | 1026.3 hPa | 0 mm | - | - | - |
| 1777494743 | 3.89° C | 55% | 1026.2 hPa | 0 mm | - | - | - |
| 1777494141 | 4.44° C | 54% | 1026.2 hPa | 0 mm | - | - | - |
| 1777493537 | 4.44° C | 53% | 1026.1 hPa | 0 mm | - | - | - |
| 1777492995 | 4.44° C | 52% | 1026 hPa | 0 mm | - | - | - |
| 1777492391 | 5° C | 51% | 1026 hPa | 0 mm | - | - | - |
| 1777491789 | 5.56° C | 50% | 1025.8 hPa | 0 mm | - | - | - |
| 1777491185 | 6.11° C | 50% | 1025.7 hPa | 0 mm | - | - | - |
| 1777490581 | 6.11° C | 49% | 1025.6 hPa | 0 mm | - | - | - |
* Rain latest hour (hover to see other rain measurements)
** Current wind speed in m/s (hover to see current wind gust speed)